Regional Weather Roundup
Issued by NWS

Home | Current Version | Previous Version | Text Only | Print | Product List | Glossary Off
Versions: 1 2 3 4 5 6 7 8 9 10 11 12 13 14 15 16 17 18 19 20 21 22 23 24 25 26 27 28 29 30 31 32 33 34 35 36 37 38 39 40 41 42 43 44 45 46 47 48 49 50

000
ASUS44 KMEG 310210
RWRTN
TENNESSEE HOURLY STATE WEATHER ROUNDUP
NATIONAL WEATHER SERVICE MEMPHIS TN
900 PM CDT THU JUL 30 2015

TNZ002-004-019-021-049-052-054-088>092-310300-
WEST TENNESSEE

CITY           SKY/WX    TMP DP  RH WIND       PRES   REMARKS
MEMPHIS INTL   PTCLDY    81  65  58 N9        30.08R
NWS MEMPHIS      N/A     81 N/A N/A MISG        N/A
JACKSON        CLEAR     75  62  64 N5        30.08R
DYERSBURG        N/A    N/A N/A N/A MISG        N/A
PARIS          CLEAR     68  64  88 CALM      30.11R
LEXINGTON      CLEAR     72  64  78 CALM      30.08R
$$

TNZ008-025-027-028-033-062-065-066-310300-
NORTH MIDDLE TENNESSEE

CITY           SKY/WX    TMP DP  RH WIND       PRES   REMARKS
NASHVILLE      PTCLDY    78  62  57 N6        30.07R
CLARKSVILLE    CLEAR     71  65  81 N3        30.08R
SMYRNA         CLEAR     77  64  63 N7        30.08R
CROSSVILLE     CLEAR     73  61  65 N5        30.11R
$$

TNZ061-075-076-078-094-096-097-310300-
SOUTH MIDDLE TENNESSEE

CITY           SKY/WX    TMP DP  RH WIND       PRES   REMARKS
FAYETTEVILLE   CLEAR     75  57  53 CALM      30.06R
TULLAHOMA      CLEAR     73  61  64 N8        30.08S
WINCHESTER     CLEAR     75  64  69 N13       30.06S
MCMINNVILLE    CLEAR     73  66  78 N5        30.08R
COLUMBIA       CLEAR     77  63  61 N3        30.07R
SHELBYVILLE    CLEAR     75  64  69 CALM      30.08R
$$

TNZ017-018-042-046-047-310300-
NORTHEAST TENNESSEE

CITY           SKY/WX    TMP DP  RH WIND       PRES   REMARKS
TRI CITIES     PTCLDY    76  61  59 N5        30.06R
ELIZABETHTON   CLOUDY    77  64  65 CALM      30.06R
$$

TNZ012-013-036-069-073-074-310300-
CENTRAL EAST TENNESSEE

CITY           SKY/WX    TMP DP  RH WIND       PRES   REMARKS
KNOXVILLE      CLOUDY    79  63  57 N10       30.03R
OAK RIDGE      CLEAR     76  66  71 CALM      30.05R
GATLINBURG     PTCLDY    79  66  65 NW6       30.03R
MORRISTOWN     CLEAR     79  66  65 N3        30.06R
$$

TNZ083-085-099-310300-
SOUTHEAST TENNESSEE

CITY           SKY/WX    TMP DP  RH WIND       PRES   REMARKS
CHATTANOOGA    PTCLDY    82  64  54 N10       30.01R
$$

SKY/WX REPORTED AS FAIR MEANS FEW OR NO CLOUDS BELOW
12 THOUSAND FEET.



USA.gov is the U.S. government's official web portal to all federal, state and local government web resources and services.